Weather History for Chicago Midway, IL

Change the Weather History Date:

Saturday, August 9, 2014

  Actual Average Record
Temperature  
Mean Temperature 74 °F 75 °F  
Max Temperature 80 °F 83 °F 104 °F (1934)
Min Temperature 68 °F 67 °F 51 °F (1972)
Degree Days  
Heating Degree Days 0 0  
Month to date heating degree days 0 0  
Since 1 June heating degree days 3 32  
Since 1 July heating degree days 1 1  
Cooling Degree Days 9 10  
Month to date cooling degree days 91 90  
Year to date cooling degree days 692 712  
Since 1 June cooling degree days 581 638  
Growing Degree Days 24 (Base 50)    
Moisture  
Dew Point 59 °F    
Average Humidity 57    
Maximum Humidity 73    
Minimum Humidity 40    
Precipitation  
Precipitation 0.00 in 0.13 in 2.13 in (1984)
Month to date precipitation 2.10 1.22  
Year to date precipitation 26.29 23.78  
Sea Level Pressure  
Sea Level Pressure 30.06 in    
Wind  
Wind Speed 11 mph (ENE)    
Max Wind Speed 17 mph    
Max Gust Speed 22 mph    
Visibility 10 miles    
Events      
T = Trace of Precipitation, MM = Missing Value Source: NWS Daily Summary

Daily Weather History Graph

Daily Weather History Graph

Search for Another Location

Airport:

Trip Planner

Search our weather history database for the weather conditions in past years. The results will help you decide how hot, cold, wet, or windy it might be!

Date:

Astronomy

Aug. 09, 2014 Rise Set
Actual Time 5:53 AM CDT 7:59 PM CDT
Civil Twilight 5:22 AM CDT 8:29 PM CDT
Nautical Twilight 4:45 AM CDT 9:06 PM CDT
Astronomical Twilight 4:03 AM CDT 9:47 PM CDT
Moon 7:00 PM CDT (8/9) 4:33 AM CDT (8/9)
Length of Visible Light 15h 07m
Length of Day
14h 06m
Waxing Gibbous, 98% of the Moon is Illuminated
Aug 9
Waxing Gibbous
Aug 10
Full
Aug 17
Last Quarter
Aug 25
New
Sep 2
First Quarter

Hourly Weather History & Observations

Time (CDT) Temp. Heat Index Dew Point Humidity Pressure Visibility Wind Dir Wind Speed Gust Speed Precip Events Conditions
12:51 AM 73.9 °F - 64.9 °F 73% 30.03 in 10.0 mi ENE 6.9 mph - N/A   Scattered Clouds
1:51 AM 73.4 °F - 64.4 °F 73% 30.06 in 10.0 mi East 6.9 mph - N/A   Scattered Clouds
2:51 AM 72.0 °F - 60.1 °F 66% 30.04 in 10.0 mi East 9.2 mph - N/A   Mostly Cloudy
3:51 AM 71.6 °F - 57.2 °F 60% 30.08 in 10.0 mi East 6.9 mph - N/A   Scattered Clouds
4:51 AM 70.0 °F - 55.9 °F 61% 30.05 in 10.0 mi East 5.8 mph - N/A   Scattered Clouds
5:51 AM 69.1 °F - 55.0 °F 61% 30.05 in 10.0 mi East 4.6 mph - N/A   Scattered Clouds
6:51 AM 69.8 °F - 55.4 °F 60% 30.08 in 10.0 mi ENE 5.8 mph - N/A   Mostly Cloudy
7:51 AM 73.4 °F - 57.2 °F 57% 30.09 in 10.0 mi ENE 9.2 mph - N/A   Scattered Clouds
8:51 AM 75.0 °F - 60.1 °F 60% 30.06 in 10.0 mi ENE 10.4 mph - N/A   Partly Cloudy
9:51 AM 75.9 °F - 61.0 °F 60% 30.07 in 10.0 mi ENE 10.4 mph - N/A   Scattered Clouds
10:51 AM 77.0 °F - 62.1 °F 60% 30.09 in 10.0 mi East 9.2 mph - N/A   Scattered Clouds
11:51 AM 78.1 °F - 61.0 °F 56% 30.08 in 10.0 mi NE 12.7 mph - N/A   Partly Cloudy
12:51 PM 79.0 °F - 57.0 °F 47% 30.06 in 10.0 mi ENE 17.3 mph - N/A   Partly Cloudy
1:51 PM 78.8 °F - 55.4 °F 44% 30.09 in 10.0 mi ENE 15.0 mph - N/A   Partly Cloudy
2:51 PM 79.0 °F - 59.0 °F 50% 30.05 in 10.0 mi ENE 12.7 mph - N/A   Scattered Clouds
3:51 PM 79.0 °F - 59.0 °F 50% 30.04 in 10.0 mi NE 13.8 mph - N/A   Scattered Clouds
4:51 PM 79.0 °F - 57.0 °F 47% 30.04 in 10.0 mi NE 12.7 mph - N/A   Scattered Clouds
5:51 PM 80.1 °F 80.2 °F 55.9 °F 43% 30.03 in 10.0 mi NE 12.7 mph - N/A   Mostly Cloudy
6:51 PM 78.1 °F - 57.9 °F 50% 30.02 in 10.0 mi NNE 12.7 mph - N/A   Mostly Cloudy
7:51 PM 75.0 °F - 59.0 °F 57% 30.03 in 10.0 mi NNE 12.7 mph - N/A   Mostly Cloudy
8:51 PM 73.4 °F - 60.8 °F 65% 30.07 in 10.0 mi NNE 12.7 mph - N/A   Mostly Cloudy
9:51 PM 73.9 °F - 62.1 °F 66% 30.05 in 10.0 mi NNE 12.7 mph - N/A   Mostly Cloudy
11:51 PM 73.0 °F - 63.0 °F 71% 30.03 in 10.0 mi NNE 9.2 mph - N/A   Overcast